,,Stat5,,Stat1,,Stat2,,Stat3,,Stat4,,Wind1,,Wind1,
time,status,PA1M_AVG,status,PR1M_SUM,status,RH1M_AVG,status,SR1M_AVG,status,TA1M_AVG,status,W1dAve1m,status,W1sAve1m,
2002-11-10, 00:00:01,VALID,917.947,VALID,0,VALID,99.0745,VALID,-0.0849042,VALID,19.7832,VALID,154,VALID,0.650641,
2002-11-10, 00:01:00,VALID,917.952,VALID,0,VALID,99.0135,VALID,-0.0849042,VALID,19.7703,VALID,143,VALID,1.00971,
2002-11-10, 00:02:00,VALID,917.965,VALID,0,VALID,99.0097,VALID,-0.0339617,VALID,19.7668,VALID,141,VALID,0.922508,
2002-11-10, 00:03:00,VALID,917.976,VALID,0,VALID,98.9931,VALID,-0.0679233,VALID,19.7797,VALID,144,VALID,1.16744,
2002-11-10, 00:04:00,VALID,917.966,VALID,0,VALID,98.9525,VALID,-0.101885,VALID,19.78,VALID,117,VALID,0.722245,
2002-11-10, 00:05:00,VALID,917.942,VALID,0,VALID,98.9359,VALID,-0.0169808,VALID,19.783,VALID,141,VALID,0.460938,
2002-11-10, 00:06:00,VALID,917.93,VALID,0,VALID,98.9537,VALID,0,VALID,19.7735,VALID,158,VALID,0.332732,
2002-11-10, 00:07:00,VALID,917.908,VALID,0,VALID,98.9588,VALID,0,VALID,19.7827,VALID,154,VALID,0.59375,
2002-11-10, 00:08:00,VALID,917.891,VALID,0,VALID,98.9512,VALID,-0.0169808,VALID,19.7929,VALID,154,VALID,0.506168,
2002-11-10, 00:09:00,VALID,917.878,VALID,0,VALID,98.9741,VALID,0,VALID,19.7954,VALID,104,VALID,0.43125,
2002-11-10, 00:10:00,VALID,917.868,VALID,0,VALID,98.9906,VALID,0,VALID,19.8056,VALID,112,VALID,0.363809,
2002-11-10, 00:11:00,VALID,917.857,VALID,0,VALID,98.983,VALID,0,VALID,19.7956,VALID,121,VALID,0.397436,
2002-11-10, 00:12:00,VALID,917.82,VALID,0,VALID,98.9906,VALID,0,VALID,19.8021,VALID,135,VALID,0.512946,
2002-11-10, 00:13:00,VALID,917.823,VALID,0,VALID,99.0249,VALID,0,VALID,19.7924,VALID,128,VALID,0.418708,
2002-11-10, 00:14:00,VALID,917.818,VALID,0,VALID,98.9855,VALID,0,VALID,19.7956,VALID,125,VALID,0.585938,
2002-11-10, 00:15:00,VALID,917.815,VALID,0,VALID,98.9652,VALID,0.0339617,VALID,19.7854,VALID,111,VALID,0.538281,
2002-11-10, 00:16:00,VALID,917.814,VALID,0,VALID,98.955,VALID,0,VALID,19.7626,VALID,99,VALID,0.405449,
2002-11-10, 00:17:00,VALID,917.819,VALID,0,VALID,98.9601,VALID,0,VALID,19.7601,VALID,115,VALID,0.779605,
2002-11-10, 00:18:00,VALID,917.835,VALID,0,VALID,98.9385,VALID,0,VALID,19.7472,VALID,122,VALID,1.02713,
2002-11-10, 00:19:00,VALID,917.833,VALID,0,VALID,98.8914,VALID,-0.0169808,VALID,19.7343,VALID,116,VALID,0.958404,
2002-11-10, 00:20:00,VALID,917.842,VALID,0,VALID,98.8889,VALID,0.0169808,VALID,19.7343,VALID,115,VALID,0.965255,
2002-11-10, 00:21:00,VALID,917.858,VALID,0,VALID,98.8647,VALID,0,VALID,19.7407,VALID,113,VALID,0.942434,
2002-11-10, 00:22:00,VALID,917.842,VALID,0,VALID,98.8571,VALID,0,VALID,19.7405,VALID,143,VALID,0.452914,
2002-11-10, 00:23:00,VALID,917.832,VALID,0,VALID,98.8965,VALID,0,VALID,19.7467,VALID,133,VALID,0.660895,
2002-11-10, 00:24:00,VALID,917.815,VALID,0,VALID,98.8927,VALID,0,VALID,19.774,VALID,149,VALID,0.520559,
2002-11-10, 00:25:00,VALID,917.803,VALID,0,VALID,98.899,VALID,-0.0169808,VALID,19.7693,VALID,136,VALID,0.35853,
2002-11-10, 00:26:00,VALID,917.797,VALID,0,VALID,98.8533,VALID,0.0169808,VALID,19.7631,VALID,120,VALID,0.411258,
2002-11-10, 00:27:00,VALID,917.811,VALID,0,VALID,98.8647,VALID,0,VALID,19.7668,VALID,107,VALID,0.475507,
2002-11-10, 00:28:00,VALID,917.818,VALID,0,VALID,98.9207,VALID,-0.0169808,VALID,19.7825,VALID,84,VALID,0.601974,
2002-11-10, 00:29:00,VALID,917.825,VALID,0,VALID,98.9601,VALID,-0.0339617,VALID,19.815,VALID,44,VALID,0.883705,
2002-11-10, 00:30:00,VALID,917.826,VALID,0,VALID,98.9563,VALID,-0.0169808,VALID,19.8113,VALID,41,VALID,0.739865,
2002-11-10, 00:31:00,VALID,917.819,VALID,0,VALID,98.9385,VALID,0,VALID,19.8215,VALID,46,VALID,0.913462,
2002-11-10, 00:32:00,VALID,917.801,VALID,0,VALID,98.9105,VALID,0.0169808,VALID,19.8217,VALID,57,VALID,0.862277,
2002-11-10, 00:33:00,VALID,917.785,VALID,0,VALID,98.8736,VALID,-0.0169808,VALID,19.776,VALID,64,VALID,0.821791,
2002-11-10, 00:34:00,VALID,917.753,VALID,0,VALID,98.8406,VALID,0,VALID,19.7499,VALID,67,VALID,0.857639,
2002-11-10, 00:35:00,VALID,917.748,VALID,0,VALID,98.8749,VALID,-0.0169808,VALID,19.7338,VALID,71,VALID,0.931641,
2002-11-10, 00:36:00,VALID,917.728,VALID,0,VALID,98.8774,VALID,0,VALID,19.7472,VALID,79,VALID,1.0631,
2002-11-10, 00:37:00,VALID,917.724,VALID,0,VALID,98.8406,VALID,-0.0169808,VALID,19.7372,VALID,78,VALID,1.15173,
2002-11-10, 00:38:00,VALID,917.71,VALID,0,VALID,98.9118,VALID,-0.0169808,VALID,19.7338,VALID,55,VALID,0.883681,
2002-11-10, 00:39:00,VALID,917.68,VALID,0,VALID,98.9232,VALID,0,VALID,19.7569,VALID,50,VALID,0.988176,
2002-11-10, 00:40:00,VALID,917.664,VALID,0,VALID,98.8075,VALID,0,VALID,19.738,VALID,43,VALID,0.784539,
2002-11-10, 00:41:00,VALID,917.643,VALID,0,VALID,98.8507,VALID,-0.0339617,VALID,19.7435,VALID,52,VALID,1.11225,
2002-11-10, 00:42:01,VALID,917.628,VALID,0,VALID,98.646,VALID,0,VALID,19.744,VALID,83,VALID,1.02703,
2002-11-10, 00:43:00,VALID,917.621,VALID,0,VALID,98.5544,VALID,0,VALID,19.7151,VALID,96,VALID,0.897382,
2002-11-10, 00:44:00,VALID,917.607,VALID,0,VALID,98.4247,VALID,0,VALID,19.7117,VALID,107,VALID,1.12981,
2002-11-10, 00:45:00,VALID,917.59,VALID,0,VALID,98.1997,VALID,0,VALID,19.7049,VALID,107,VALID,1.07834,
2002-11-10, 00:46:01,VALID,917.592,VALID,0,VALID,98.159,VALID,-0.0169808,VALID,19.7146,VALID,122,VALID,0.713942,
2002-11-10, 00:47:00,VALID,917.562,VALID,0,VALID,98.2327,VALID,0,VALID,19.7604,VALID,142,VALID,0.940456,
2002-11-10, 00:48:00,VALID,917.545,VALID,0,VALID,98.2721,VALID,0,VALID,19.8018,VALID,144,VALID,0.957237,
2002-11-10, 00:49:00,VALID,917.528,VALID,0,VALID,98.3027,VALID,-0.0169808,VALID,19.8115,VALID,152,VALID,0.737723,
2002-11-10, 00:50:00,VALID,917.523,VALID,0,VALID,98.3268,VALID,-0.0339617,VALID,19.8215,VALID,151,VALID,0.593961,
2002-11-10, 00:51:00,VALID,917.508,VALID,0,VALID,98.3573,VALID,0,VALID,19.8215,VALID,149,VALID,0.652244,
2002-11-10, 00:52:00,VALID,917.504,VALID,0,VALID,98.4247,VALID,0,VALID,19.8215,VALID,145,VALID,0.783259,
2002-11-10, 00:53:00,VALID,917.506,VALID,0,VALID,98.4108,VALID,0,VALID,19.8118,VALID,133,VALID,0.846284,
2002-11-10, 00:54:00,VALID,917.504,VALID,0,VALID,98.4413,VALID,0,VALID,19.8021,VALID,147,VALID,0.578125,
2002-11-10, 00:55:01,VALID,917.475,VALID,0,VALID,98.5137,VALID,0,VALID,19.7989,VALID,166,VALID,0.767969,
2002-11-10, 00:56:00,VALID,917.442,VALID,0,VALID,98.557,VALID,0.0169808,VALID,19.7954,VALID,198,VALID,0.470353,
2002-11-10, 00:57:00,VALID,917.413,VALID,0,VALID,98.6689,VALID,0,VALID,19.8245,VALID,202,VALID,0.165296,
2002-11-10, 00:58:00,VALID,917.383,VALID,0,VALID,98.688,VALID,0,VALID,19.821,VALID,209,VALID,0.0924479,
2002-11-10, 00:59:01,VALID,917.363,VALID,0,VALID,98.6435,VALID,0,VALID,19.8183,VALID,326,VALID,0.327492,
2002-11-10, 01:00:00,VALID,917.346,VALID,0,VALID,98.5023,VALID,0,VALID,19.7961,VALID,79,VALID,0.27241,
2002-11-10, 01:01:00,VALID,917.334,VALID,0,VALID,98.4362,VALID,-0.0339617,VALID,19.7666,VALID,102,VALID,0.264391,
2002-11-10, 01:02:01,VALID,917.326,VALID,0,VALID,98.4718,VALID,-0.0169808,VALID,19.7763,VALID,86,VALID,0,
2002-11-10, 01:03:00,VALID,917.302,VALID,0,VALID,98.4591,VALID,-0.0509425,VALID,19.7894,VALID,152,VALID,0.175042,
2002-11-10, 01:04:00,VALID,917.279,VALID,0,VALID,98.4934,VALID,-0.0679233,VALID,19.8086,VALID,257,VALID,0.4669,
2002-11-10, 01:05:00,VALID,917.282,VALID,0,VALID,98.5646,VALID,-0.0339617,VALID,19.8416,VALID,259,VALID,0.652238,
2002-11-10, 01:06:01,VALID,917.241,VALID,0,VALID,98.5824,VALID,-0.0169808,VALID,19.8349,VALID,253,VALID,1.04507,
2002-11-10, 01:07:00,VALID,917.237,VALID,0,VALID,98.6587,VALID,0,VALID,19.8185,VALID,269,VALID,0.569468,
2002-11-10, 01:08:00,VALID,917.245,VALID,0,VALID,98.7019,VALID,0,VALID,19.7989,VALID,279,VALID,0.0532484,
2002-11-10, 01:09:00,VALID,917.259,VALID,0,VALID,98.7719,VALID,-0.0339617,VALID,19.7989,VALID,278,VALID,0.0171875,
2002-11-10, 01:10:01,VALID,917.252,VALID,0,VALID,98.8075,VALID,-0.0169808,VALID,19.7763,VALID,290,VALID,0.135769,
2002-11-10, 01:11:00,VALID,917.25,VALID,0,VALID,98.8774,VALID,-0.0339617,VALID,19.7733,VALID,356,VALID,0.171675,
2002-11-10, 01:12:00,VALID,917.232,VALID,0,VALID,98.9664,VALID,-0.0169808,VALID,19.7892,VALID,356,VALID,0.141964,
2002-11-10, 01:13:00,VALID,917.212,VALID,0,VALID,99.0059,VALID,-0.0169808,VALID,19.8185,VALID,356,VALID,0,
2002-11-10, 01:14:00,VALID,917.187,VALID,0.2,VALID,99.0097,VALID,-0.0169808,VALID,19.8053,VALID,31,VALID,0.389323,
2002-11-10, 01:15:01,VALID,917.18,VALID,0,VALID,98.9944,VALID,0,VALID,19.8023,VALID,51,VALID,0.205078,
2002-11-10, 01:16:00,VALID,917.165,VALID,0,VALID,99.0224,VALID,-0.0169808,VALID,19.7961,VALID,51,VALID,0.0438702,
2002-11-10, 01:17:00,VALID,917.132,VALID,0,VALID,99.044,VALID,-0.0169808,VALID,19.7698,VALID,51,VALID,0.0877878,
2002-11-10, 01:18:00,VALID,917.133,VALID,0,VALID,99.0567,VALID,-0.0169808,VALID,19.7502,VALID,51,VALID,0.0169271,
2002-11-10, 01:19:01,VALID,917.138,VALID,0,VALID,99.0682,VALID,-0.0509425,VALID,19.7601,VALID,51,VALID,0.137669,
2002-11-10, 01:20:00,VALID,917.15,VALID,0,VALID,99.0834,VALID,0,VALID,19.7539,VALID,51,VALID,0.0567434,
2002-11-10, 01:21:00,VALID,917.17,VALID,0,VALID,99.0618,VALID,-0.0339617,VALID,19.7377,VALID,51,VALID,0.0419408,
2002-11-10, 01:22:01,VALID,917.168,VALID,0,VALID,99.1101,VALID,-0.0339617,VALID,19.738,VALID,51,VALID,0.178843,
2002-11-10, 01:23:00,VALID,917.188,VALID,0,VALID,99.1305,VALID,-0.0679233,VALID,19.738,VALID,51,VALID,0.357475,
2002-11-10, 01:24:00,VALID,917.212,VALID,0,VALID,99.147,VALID,-0.0339617,VALID,19.7477,VALID,46,VALID,0.173109,
2002-11-10, 01:25:00,VALID,917.224,VALID,0,VALID,99.1483,VALID,-0.0339617,VALID,19.7343,VALID,46,VALID,0.0263936,
2002-11-10, 01:26:01,VALID,917.229,VALID,0,VALID,99.1635,VALID,-0.0679233,VALID,19.7348,VALID,46,VALID,0.0200321,
2002-11-10, 01:27:00,VALID,917.23,VALID,0,VALID,99.1801,VALID,-0.0339617,VALID,19.7278,VALID,46,VALID,0.00126689,
2002-11-10, 01:28:00,VALID,917.241,VALID,0,VALID,99.1877,VALID,-0.0169808,VALID,19.7218,VALID,46,VALID,0.010074,
2002-11-10, 01:29:00,VALID,917.239,VALID,0,VALID,99.1991,VALID,-0.0509425,VALID,19.7318,VALID,46,VALID,0.413393,
2002-11-10, 01:30:01,VALID,917.259,VALID,0,VALID,99.2284,VALID,-0.0509425,VALID,19.7445,VALID,42,VALID,0.346073,
2002-11-10, 01:31:00,VALID,917.255,VALID,0,VALID,99.2335,VALID,-0.0169808,VALID,19.7636,VALID,42,VALID,0.222356,
2002-11-10, 01:32:00,VALID,917.25,VALID,0,VALID,99.2525,VALID,-0.0339617,VALID,19.7606,VALID,42,VALID,0.260714,
2002-11-10, 01:33:00,VALID,917.249,VALID,0,VALID,99.2411,VALID,-0.0509425,VALID,19.7477,VALID,42,VALID,0.145481,
2002-11-10, 01:34:00,VALID,917.263,VALID,0,VALID,99.2233,VALID,-0.0679233,VALID,19.7084,VALID,288,VALID,0.36263,
2002-11-10, 01:35:01,VALID,917.254,VALID,0,VALID,99.1902,VALID,-0.0509425,VALID,19.6863,VALID,278,VALID,0.324805,
2002-11-10, 01:36:00,VALID,917.248,VALID,0,VALID,99.2208,VALID,-0.0339617,VALID,19.6766,VALID,253,VALID,0.353566,
2002-11-10, 01:37:00,VALID,917.247,VALID,0,VALID,99.2335,VALID,-0.0339617,VALID,19.6925,VALID,218,VALID,0.212788,
2002-11-10, 01:38:00,VALID,917.243,VALID,0,VALID,99.2564,VALID,-0.0509425,VALID,19.7087,VALID,218,VALID,0.191406,
2002-11-10, 01:39:01,VALID,917.242,VALID,0,VALID,99.2653,VALID,-0.0339617,VALID,19.7223,VALID,230,VALID,0.401182,
2002-11-10, 01:40:00,VALID,917.238,VALID,0,VALID,99.2767,VALID,-0.0509425,VALID,19.7089,VALID,245,VALID,0.200452,
2002-11-10, 01:41:00,VALID,917.237,VALID,0,VALID,99.2869,VALID,-0.0509425,VALID,19.7355,VALID,232,VALID,0.223273,
2002-11-10, 01:42:01,VALID,917.23,VALID,0,VALID,99.2716,VALID,-0.0509425,VALID,19.7027,VALID,169,VALID,0.131334,
2002-11-10, 01:43:00,VALID,917.231,VALID,0,VALID,99.2716,VALID,-0.0339617,VALID,19.6987,VALID,215,VALID,0.497466,
2002-11-10, 01:44:00,VALID,917.219,VALID,0,VALID,99.2627,VALID,-0.0509425,VALID,19.6955,VALID,234,VALID,0.771998,
2002-11-10, 01:45:00,VALID,917.196,VALID,0,VALID,99.2665,VALID,-0.0679233,VALID,19.7022,VALID,241,VALID,0.736698,
2002-11-10, 01:46:01,VALID,917.181,VALID,0,VALID,99.2907,VALID,-0.0509425,VALID,19.7223,VALID,251,VALID,0.398438,
2002-11-10, 01:47:00,VALID,917.176,VALID,0,VALID,99.2983,VALID,-0.0679233,VALID,19.7348,VALID,252,VALID,0.261402,
2002-11-10, 01:48:00,VALID,917.168,VALID,0,VALID,99.3034,VALID,-0.0339617,VALID,19.731,VALID,268,VALID,0.592722,
2002-11-10, 01:49:00,VALID,917.149,VALID,0,VALID,99.3212,VALID,-0.0169808,VALID,19.7253,VALID,289,VALID,0.948214,
2002-11-10, 01:50:01,VALID,917.152,VALID,0,VALID,99.3098,VALID,-0.0339617,VALID,19.7025,VALID,304,VALID,0.681588,
2002-11-10, 01:51:00,VALID,917.146,VALID,0,VALID,99.3238,VALID,-0.0339617,VALID,19.7156,VALID,304,VALID,0.00721154,
2002-11-10, 01:52:00,VALID,917.152,VALID,0,VALID,99.3428,VALID,-0.0679233,VALID,19.7412,VALID,304,VALID,0.0247768,
2002-11-10, 01:53:00,VALID,917.155,VALID,0,VALID,99.3543,VALID,-0.0679233,VALID,19.7251,VALID,304,VALID,0.110431,
2002-11-10, 01:54:00,VALID,917.161,VALID,0,VALID,99.3365,VALID,-0.0679233,VALID,19.6826,VALID,304,VALID,0.0542535,
2002-11-10, 01:55:01,VALID,917.161,VALID,0,VALID,99.339,VALID,-0.0339617,VALID,19.6828,VALID,298,VALID,0.111719,
2002-11-10, 01:56:00,VALID,917.161,VALID,0,VALID,99.3416,VALID,-0.0509425,VALID,19.703,VALID,279,VALID,0.298277,
2002-11-10, 01:57:00,VALID,917.157,VALID,0,VALID,99.3454,VALID,-0.0169808,VALID,19.7,VALID,260,VALID,0.493832,
2002-11-10, 01:58:00,VALID,917.14,VALID,0,VALID,99.3594,VALID,-0.0509425,VALID,19.6667,VALID,243,VALID,0.588976,
2002-11-10, 01:59:01,VALID,917.14,VALID,0,VALID,99.353,VALID,-0.0509425,VALID,19.6508,VALID,242,VALID,0.331503,
2002-11-10, 02:00:00,VALID,917.136,VALID,0,VALID,99.3568,VALID,-0.0339617,VALID,19.6448,VALID,242,VALID,0.150288,
2002-11-10, 02:01:00,VALID,917.145,VALID,0,VALID,99.3556,VALID,-0.0509425,VALID,19.6381,VALID,242,VALID,0.0172697,
2002-11-10, 02:02:01,VALID,917.137,VALID,0,VALID,99.3556,VALID,-0.0339617,VALID,19.6446,VALID,242,VALID,0.00126689,
2002-11-10, 02:03:00,VALID,917.15,VALID,0,VALID,99.3772,VALID,-0.0849042,VALID,19.6513,VALID,236,VALID,0.0599662,
2002-11-10, 02:04:00,VALID,917.121,VALID,0,VALID,99.3695,VALID,-0.0169808,VALID,19.6575,VALID,160,VALID,0.399671,
2002-11-10, 02:05:00,VALID,917.11,VALID,0,VALID,99.3466,VALID,-0.0339617,VALID,19.6376,VALID,176,VALID,0.598606,
2002-11-10, 02:06:01,VALID,917.088,VALID,0,VALID,99.3161,VALID,-0.0169808,VALID,19.6056,VALID,162,VALID,0.320913,
2002-11-10, 02:07:00,VALID,917.075,VALID,0,VALID,99.3238,VALID,0,VALID,19.5951,VALID,158,VALID,0.245777,
2002-11-10, 02:08:00,VALID,917.062,VALID,0,VALID,99.3301,VALID,-0.0169808,VALID,19.618,VALID,155,VALID,0.202508,
2002-11-10, 02:09:00,VALID,917.053,VALID,0,VALID,99.2932,VALID,0,VALID,19.6115,VALID,144,VALID,0.589286,
2002-11-10, 02:10:01,VALID,917.036,VALID,0,VALID,99.2131,VALID,0,VALID,19.5665,VALID,151,VALID,0.5019,
2002-11-10, 02:11:01,VALID,917.017,VALID,0,VALID,99.1496,VALID,-0.0339617,VALID,19.5375,VALID,127,VALID,0.351362,
2002-11-10, 02:12:00,VALID,916.996,VALID,0,VALID,99.1457,VALID,0,VALID,19.5469,VALID,122,VALID,0.246875,
2002-11-10, 02:13:00,VALID,916.974,VALID,0,VALID,99.1521,VALID,0.0169808,VALID,19.5534,VALID,122,VALID,0.0836149,
2002-11-10, 02:14:01,VALID,916.948,VALID,0,VALID,99.0936,VALID,0,VALID,19.5765,VALID,122,VALID,0.353299,
2002-11-10, 02:15:01,VALID,916.939,VALID,0,VALID,99.0542,VALID,0,VALID,19.5566,VALID,140,VALID,0.434766,
2002-11-10, 02:16:01,VALID,916.916,VALID,0,VALID,98.9957,VALID,-0.0169808,VALID,19.5663,VALID,149,VALID,0.580729,
2002-11-10, 02:17:00,VALID,916.887,VALID,0,VALID,98.9817,VALID,0.0169808,VALID,19.5665,VALID,157,VALID,0.150699,
2002-11-10, 02:18:01,VALID,916.886,VALID,0,VALID,98.9855,VALID,-0.0169808,VALID,19.576,VALID,159,VALID,0.267795,
2002-11-10, 02:19:01,VALID,916.877,VALID,0,VALID,98.9397,VALID,-0.0169808,VALID,19.5802,VALID,142,VALID,0.363598,
2002-11-10, 02:20:00,VALID,916.867,VALID,0,VALID,98.8367,VALID,-0.0169808,VALID,19.5668,VALID,148,VALID,0.534128,
2002-11-10, 02:21:01,VALID,916.884,VALID,0,VALID,98.7871,VALID,0,VALID,19.5439,VALID,157,VALID,0.358141,
2002-11-10, 02:22:01,VALID,916.876,VALID,0,VALID,98.7541,VALID,0,VALID,19.534,VALID,133,VALID,0.439611,
2002-11-10, 02:23:01,VALID,916.89,VALID,0,VALID,98.7719,VALID,-0.0169808,VALID,19.5444,VALID,133,VALID,0.200169,
2002-11-10, 02:24:01,VALID,916.886,VALID,0,VALID,98.7147,VALID,0,VALID,19.5534,VALID,138,VALID,0.336554,
2002-11-10, 02:25:00,VALID,916.878,VALID,0,VALID,98.6702,VALID,-0.0169808,VALID,19.5278,VALID,140,VALID,0.361064,
2002-11-10, 02:26:01,VALID,916.874,VALID,0,VALID,98.6752,VALID,0,VALID,19.5308,VALID,140,VALID,0.265224,
2002-11-10, 02:27:01,VALID,916.86,VALID,0,VALID,98.674,VALID,0,VALID,19.531,VALID,140,VALID,0.254434,
2002-11-10, 02:28:01,VALID,916.863,VALID,0,VALID,98.735,VALID,0,VALID,19.5405,VALID,123,VALID,0.137336,
2002-11-10, 02:29:01,VALID,916.875,VALID,0,VALID,98.7833,VALID,-0.0169808,VALID,19.5894,VALID,44,VALID,0.41317,
2002-11-10, 02:30:01,VALID,916.858,VALID,0,VALID,98.8189,VALID,0,VALID,19.6118,VALID,42,VALID,0.0684122,
2002-11-10, 02:31:01,VALID,916.869,VALID,0,VALID,98.8189,VALID,-0.0169808,VALID,19.618,VALID,42,VALID,0,
2002-11-10, 02:32:01,VALID,916.852,VALID,0,VALID,98.8037,VALID,0,VALID,19.6145,VALID,42,VALID,0,
2002-11-10, 02:33:01,VALID,916.854,VALID,0,VALID,98.791,VALID,0.0169808,VALID,19.5988,VALID,41,VALID,0.0126689,
2002-11-10, 02:34:01,VALID,916.837,VALID,0,VALID,98.7566,VALID,0,VALID,19.5827,VALID,135,VALID,0.509766,
2002-11-10, 02:35:01,VALID,916.82,VALID,0,VALID,98.7223,VALID,0,VALID,19.5569,VALID,182,VALID,0.462109,
2002-11-10, 02:36:01,VALID,916.813,VALID,0,VALID,98.7693,VALID,0,VALID,19.5469,VALID,186,VALID,0.0839343,
2002-11-10, 02:37:01,VALID,916.799,VALID,0,VALID,98.7935,VALID,-0.0169808,VALID,19.5472,VALID,181,VALID,0.320107,
2002-11-10, 02:38:01,VALID,916.798,VALID,0,VALID,98.7757,VALID,0.0169808,VALID,19.5313,VALID,181,VALID,0.635417,
2002-11-10, 02:39:01,VALID,916.792,VALID,0,VALID,98.7528,VALID,0,VALID,19.5052,VALID,173,VALID,0.648649,
2002-11-10, 02:40:01,VALID,916.796,VALID,0,VALID,98.7325,VALID,-0.0169808,VALID,19.4952,VALID,173,VALID,0.653988,
2002-11-10, 02:41:01,VALID,916.777,VALID,0,VALID,98.7426,VALID,0,VALID,19.4823,VALID,185,VALID,0.379523,
2002-11-10, 02:42:01,VALID,916.783,VALID,0,VALID,98.7706,VALID,0,VALID,19.4858,VALID,165,VALID,0.182432,
2002-11-10, 02:43:01,VALID,916.793,VALID,0,VALID,98.7706,VALID,-0.0339617,VALID,19.5049,VALID,164,VALID,0.110008,
2002-11-10, 02:44:01,VALID,916.776,VALID,0,VALID,98.7744,VALID,0,VALID,19.5144,VALID,164,VALID,0.129317,
2002-11-10, 02:45:01,VALID,916.77,VALID,0,VALID,98.7821,VALID,0,VALID,19.5313,VALID,155,VALID,0.0612331,
2002-11-10, 02:46:01,VALID,916.761,VALID,0,VALID,98.8202,VALID,0,VALID,19.5504,VALID,31,VALID,0.428686,
2002-11-10, 02:47:01,VALID,916.745,VALID,0,VALID,98.8151,VALID,0.0169808,VALID,19.5638,VALID,20,VALID,0.759291,
2002-11-10, 02:48:00,VALID,916.743,VALID,0,VALID,98.7643,VALID,0,VALID,19.5211,VALID,19,VALID,0.583676,
2002-11-10, 02:49:00,VALID,916.729,VALID,0,VALID,98.7948,VALID,-0.0169808,VALID,19.5216,VALID,20,VALID,0.740402,
2002-11-10, 02:50:00,VALID,916.733,VALID,0,VALID,98.8304,VALID,-0.0169808,VALID,19.5146,VALID,23,VALID,0.726563,
2002-11-10, 02:51:00,VALID,916.715,VALID,0,VALID,98.852,VALID,-0.0339617,VALID,19.5188,VALID,24,VALID,0.541667,
2002-11-10, 02:52:00,VALID,916.718,VALID,0,VALID,98.8927,VALID,0,VALID,19.5181,VALID,25,VALID,0.528571,
2002-11-10, 02:53:00,VALID,916.717,VALID,0,VALID,98.8711,VALID,-0.0169808,VALID,19.4987,VALID,31,VALID,0.433066,
2002-11-10, 02:54:00,VALID,916.7,VALID,0,VALID,98.8584,VALID,-0.0169808,VALID,19.4962,VALID,42,VALID,0.427951,
2002-11-10, 02:55:00,VALID,916.694,VALID,0,VALID,98.8749,VALID,0,VALID,19.4468,VALID,39,VALID,0.341797,
2002-11-10, 02:56:00,VALID,916.671,VALID,0,VALID,98.9067,VALID,0,VALID,19.4403,VALID,32,VALID,0.216146,
2002-11-10, 02:57:00,VALID,916.652,VALID,0,VALID,98.9614,VALID,0,VALID,19.4537,VALID,30,VALID,0.4044,
2002-11-10, 02:58:00,VALID,916.631,VALID,0,VALID,99.0033,VALID,0,VALID,19.4532,VALID,15,VALID,0.415148,
2002-11-10, 02:59:00,VALID,916.625,VALID,0,VALID,99.0389,VALID,0,VALID,19.4726,VALID,42,VALID,0.696157,
2002-11-10, 03:00:00,VALID,916.622,VALID,0,VALID,99.0122,VALID,0,VALID,19.4567,VALID,48,VALID,0.910362,
2002-11-10, 03:01:00,VALID,916.619,VALID,0,VALID,99.0338,VALID,0,VALID,19.444,VALID,39,VALID,0.887541,
2002-11-10, 03:02:00,VALID,916.6,VALID,0,VALID,99.0491,VALID,-0.0169808,VALID,19.4413,VALID,38,VALID,0.438556,
2002-11-10, 03:03:00,VALID,916.591,VALID,0,VALID,99.0745,VALID,0,VALID,19.4373,VALID,21,VALID,0.728885,
2002-11-10, 03:04:00,VALID,916.594,VALID,0,VALID,99.1292,VALID,-0.0169808,VALID,19.4508,VALID,38,VALID,0.66324,
2002-11-10, 03:05:00,VALID,916.57,VALID,0,VALID,99.1292,VALID,-0.0169808,VALID,19.4512,VALID,38,VALID,0.602407,
2002-11-10, 03:06:00,VALID,916.554,VALID,0,VALID,99.1483,VALID,-0.0509425,VALID,19.4505,VALID,39,VALID,0.601563,
2002-11-10, 03:07:00,VALID,916.549,VALID,0,VALID,99.1559,VALID,-0.0339617,VALID,19.4572,VALID,56,VALID,0.836149,
2002-11-10, 03:08:00,VALID,916.544,VALID,0,VALID,99.1546,VALID,-0.0679233,VALID,19.4443,VALID,46,VALID,0.9081,
2002-11-10, 03:09:00,VALID,916.536,VALID,0,VALID,99.1724,VALID,-0.0339617,VALID,19.4577,VALID,21,VALID,0.839955,
2002-11-10, 03:10:00,VALID,916.481,VALID,0,VALID,99.2157,VALID,-0.0679233,VALID,19.4768,VALID,34,VALID,0.645354,
2002-11-10, 03:11:00,VALID,916.481,VALID,0,VALID,99.222,VALID,-0.0509425,VALID,19.49,VALID,56,VALID,0.876803,
2002-11-10, 03:12:00,VALID,916.464,VALID,0,VALID,99.2144,VALID,-0.0509425,VALID,19.4773,VALID,85,VALID,1.06964,
2002-11-10, 03:13:00,VALID,916.459,VALID,0,VALID,99.1788,VALID,-0.0169808,VALID,19.4281,VALID,98,VALID,0.826436,
2002-11-10, 03:14:00,VALID,916.426,VALID,0,VALID,99.1928,VALID,-0.0339617,VALID,19.4085,VALID,95,VALID,0.388021,
2002-11-10, 03:15:00,VALID,916.392,VALID,0,VALID,99.2068,VALID,-0.0509425,VALID,19.3961,VALID,84,VALID,0.262305,
2002-11-10, 03:16:00,VALID,916.394,VALID,0,VALID,99.2322,VALID,-0.0679233,VALID,19.3921,VALID,75,VALID,0.750601,
2002-11-10, 03:17:00,VALID,916.388,VALID,0,VALID,99.2398,VALID,-0.0509425,VALID,19.3794,VALID,86,VALID,1.05058,
2002-11-10, 03:18:00,VALID,916.392,VALID,0,VALID,99.2589,VALID,-0.0339617,VALID,19.3698,VALID,81,VALID,0.617405,
2002-11-10, 03:19:00,VALID,916.382,VALID,0,VALID,99.2856,VALID,-0.0679233,VALID,19.3765,VALID,71,VALID,0.234797,
2002-11-10, 03:20:00,VALID,916.373,VALID,0,VALID,99.3021,VALID,-0.0339617,VALID,19.3827,VALID,68,VALID,0.152138,
2002-11-10, 03:21:00,VALID,916.364,VALID,0,VALID,99.3288,VALID,-0.0509425,VALID,19.3824,VALID,68,VALID,0,
2002-11-10, 03:22:00,VALID,916.365,VALID,0,VALID,99.3466,VALID,-0.0679233,VALID,19.4093,VALID,68,VALID,0.078125,
2002-11-10, 03:23:00,VALID,916.398,VALID,0,VALID,99.3619,VALID,-0.0339617,VALID,19.4152,VALID,68,VALID,0,
2002-11-10, 03:24:00,VALID,916.433,VALID,0,VALID,99.3772,VALID,-0.0509425,VALID,19.4416,VALID,68,VALID,0,
2002-11-10, 03:25:00,VALID,916.437,VALID,0,VALID,99.3912,VALID,-0.0339617,VALID,19.4448,VALID,68,VALID,0.00105574,
2002-11-10, 03:26:00,VALID,916.451,VALID,0,VALID,99.3823,VALID,-0.0509425,VALID,19.4575,VALID,68,VALID,0,
2002-11-10, 03:27:00,VALID,916.453,VALID,0,VALID,99.3912,VALID,-0.0849042,VALID,19.4637,VALID,68,VALID,0,
2002-11-10, 03:28:00,VALID,916.442,VALID,0,VALID,99.3912,VALID,-0.0169808,VALID,19.444,VALID,68,VALID,0,
2002-11-10, 03:29:00,VALID,916.424,VALID,0,VALID,99.4039,VALID,-0.0169808,VALID,19.451,VALID,68,VALID,0,
2002-11-10, 03:30:00,VALID,916.422,VALID,0,VALID,99.4077,VALID,-0.0509425,VALID,19.4637,VALID,68,VALID,0,
2002-11-10, 03:31:00,VALID,916.407,VALID,0,VALID,99.4039,VALID,-0.0679233,VALID,19.4642,VALID,68,VALID,0,
2002-11-10, 03:32:00,VALID,916.374,VALID,0,VALID,99.4191,VALID,-0.0509425,VALID,19.4766,VALID,68,VALID,0,
2002-11-10, 03:33:00,VALID,916.38,VALID,0,VALID,99.409,VALID,-0.0339617,VALID,19.4798,VALID,70,VALID,0,
2002-11-10, 03:34:00,VALID,916.393,VALID,0,VALID,99.4153,VALID,-0.0849042,VALID,19.4865,VALID,75,VALID,0,